Location: Bois de la Silve
(44.4667°N, 6.7833°E)
Time: 20:29:27
(UTC+00:00)

CZ-2D R/B - Pass Details

Date: 14 July 2020
Orbit: 792 x 844 km, 98.7° (Epoch: 14 August)

Event Time Altitude Azimuth Distance (km) Brightness Sun altitude
Rises 02:19:58 0° 4° (N) 3,347 6.3 -14.4°
Reaches altitude 10° 02:22:35 10° 353° (N) 2,419 5.2 -14.1°
Maximum altitude 02:27:03 28° 296° (WNW) 1,504 3.4 -13.6°
Enters shadow 02:30:27 15° 247° (WSW) 2,087 3.7 -13.2°
